TimePDT,TemperatureF,Dew PointF,Humidity,Sea Level PressureIn,VisibilityMPH,Wind Direction,Wind SpeedMPH,Gust SpeedMPH,PrecipitationIn,Events,Conditions,WindDirDegrees,DateUTC
12:53 AM,55.0,53.1,93,29.80,10.0,South,10.4,-,N/A,,Mostly Cloudy,180,2013-05-28 07:53:00
1:07 AM,55.4,51.8,88,29.81,10.0,South,8.1,-,N/A,,Overcast,190,2013-05-28 08:07:00
1:11 AM,55.4,51.8,88,29.81,10.0,South,6.9,-,N/A,,Overcast,180,2013-05-28 08:11:00
1:53 AM,54.0,52.0,93,29.81,10.0,South,10.4,-,0.00,Rain,Light Rain,190,2013-05-28 08:53:00
2:53 AM,54.0,50.0,86,29.83,10.0,South,12.7,-,0.02,Rain,Light Rain,170,2013-05-28 09:53:00
3:53 AM,53.1,50.0,89,29.83,10.0,South,10.4,-,0.02,Rain,Light Rain,180,2013-05-28 10:53:00
4:53 AM,53.1,48.9,86,29.84,10.0,South,10.4,-,0.02,Rain,Light Rain,170,2013-05-28 11:53:00
5:53 AM,54.0,48.9,83,29.84,10.0,South,9.2,-,0.00,,Overcast,170,2013-05-28 12:53:00
6:53 AM,54.0,50.0,86,29.86,10.0,South,9.2,-,0.01,Rain,Light Rain,180,2013-05-28 13:53:00
7:53 AM,55.0,48.0,77,29.87,10.0,South,11.5,-,0.00,,Overcast,190,2013-05-28 14:53:00
8:53 AM,55.9,48.0,75,29.87,10.0,SSW,13.8,-,N/A,,Overcast,200,2013-05-28 15:53:00
9:53 AM,60.1,46.9,62,29.88,10.0,South,12.7,21.9,N/A,,Scattered Clouds,190,2013-05-28 16:53:00
10:53 AM,62.1,46.0,56,29.87,10.0,SW,16.1,23.0,N/A,,Mostly Cloudy,230,2013-05-28 17:53:00
11:53 AM,64.0,43.0,46,29.88,10.0,SSW,15.0,21.9,N/A,,Scattered Clouds,200,2013-05-28 18:53:00
12:53 PM,66.9,42.1,40,29.87,10.0,SW,16.1,-,N/A,,Clear,220,2013-05-28 19:53:00
1:53 PM,69.1,42.1,38,29.86,10.0,WSW,17.3,28.8,N/A,,Mostly Cloudy,250,2013-05-28 20:53:00
2:53 PM,69.1,39.9,35,29.86,10.0,WSW,12.7,21.9,N/A,,Mostly Cloudy,250,2013-05-28 21:53:00
3:53 PM,70.0,37.9,31,29.84,10.0,WSW,12.7,-,N/A,,Mostly Cloudy,240,2013-05-28 22:53:00
4:53 PM,69.1,39.0,33,29.83,10.0,South,15.0,20.7,N/A,,Mostly Cloudy,180,2013-05-28 23:53:00
5:53 PM,70.0,37.9,31,29.81,10.0,WSW,13.8,21.9,N/A,,Clear,240,2013-05-29 00:53:00
6:53 PM,68.0,37.9,33,29.81,10.0,WSW,8.1,-,N/A,,Clear,250,2013-05-29 01:53:00
7:53 PM,64.9,43.0,45,29.81,10.0,WSW,5.8,-,N/A,,Clear,250,2013-05-29 02:53:00
8:53 PM,61.0,42.1,50,29.79,10.0,WSW,6.9,-,N/A,,Clear,240,2013-05-29 03:53:00
9:53 PM,57.9,44.1,60,29.80,10.0,SSW,4.6,-,N/A,,Clear,200,2013-05-29 04:53:00
10:53 PM,57.9,45.0,62,29.80,10.0,SSE,3.5,-,N/A,,Clear,160,2013-05-29 05:53:00
11:53 PM,54.0,45.0,72,29.78,10.0,SE,5.8,-,N/A,,Clear,130,2013-05-29 06:53:00